Prairie Du Chien, WI

7:47 PM CST on December 15, 2017 (GMT -0600)
Prairie Du Chien Municipal

Weather History for KPDC - January, 2014

Change the Weather History Date:

Monday, January 20, 2014

  Actual Average Record
Temperature  
Mean Temperature 22 °F -  
Max Temperature 35 °F 28 °F 49 °F (1968)
Min Temperature 8 °F 8 °F -25 °F (2008)
Degree Days  
Heating Degree Days 43    
Moisture  
Dew Point 18 °F    
Average Humidity 73    
Maximum Humidity 87    
Minimum Humidity 51    
Precipitation  
Precipitation 0.00 in - - ()
Sea Level Pressure  
Sea Level Pressure 29.93 in    
Wind  
Wind Speed 9 mph (NW)    
Max Wind Speed 16 mph    
Max Gust Speed 25 mph    
Visibility 8 miles    
Events Snow    
Averages and records for this station are not official NWS values.
T = Trace of Precipitation, MM = Missing Value Source: NWS Daily Summary

Daily Weather History Graph

Daily Weather History Graph

Search for Another Location

Airport or City:

Trip Planner

Search our weather history database for the weather conditions in past years. The results will help you decide how hot, cold, wet, or windy it might be!

Date:

Astronomy

Jan. 20, 2014 Rise Set
Actual Time 7:30 AM CST 5:01 PM CST
Civil Twilight 6:58 AM CST 5:32 PM CST
Nautical Twilight 6:24 AM CST 6:07 PM CST
Astronomical Twilight 5:50 AM CST 6:41 PM CST
Moon 9:44 PM CST (1/20) 9:22 AM CST (1/20)
Length of Visible Light 10h 33m
Length of Day
9h 31m
Waning Gibbous, 82% of the Moon is Illuminated
Jan 20
Waning Gibbous
Jan 23
Last Quarter
Jan 30
New
Feb 6
First Quarter
Feb 14
Full

Hourly Weather History & Observations

Time (CST) Temp. Windchill Dew Point Humidity Pressure Visibility Wind Dir Wind Speed Gust Speed Precip Events Conditions
12:15 AM 35.4 °F 26.8 °F 26.4 °F 70% 29.68 in 10.0 mi WNW 12.7 mph 17.3 mph N/A   Mostly Cloudy
12:35 AM 35.1 °F 26.9 °F 26.2 °F 70% 29.68 in 10.0 mi West 11.5 mph 17.3 mph N/A   Overcast
12:55 AM 34.7 °F 25.1 °F 26.1 °F 71% 29.69 in 10.0 mi West 15.0 mph - N/A   Overcast
1:15 AM 34.7 °F 25.5 °F 26.4 °F 72% 29.70 in 10.0 mi West 13.8 mph - N/A   Overcast
1:35 AM 34.2 °F 25.2 °F 26.4 °F 73% 29.72 in 10.0 mi WNW 12.7 mph 20.7 mph N/A   Overcast
1:55 AM 34.0 °F 25.5 °F 26.2 °F 73% 29.72 in 10.0 mi WNW 11.5 mph - N/A   Overcast
2:15 AM 33.8 °F 24.3 °F 25.9 °F 73% 29.73 in 10.0 mi WNW 13.8 mph - N/A   Overcast
2:35 AM 33.4 °F 26.6 °F 25.7 °F 73% 29.75 in 10.0 mi NW 8.1 mph - N/A   Overcast
2:55 AM 32.9 °F 25.9 °F 25.2 °F 73% 29.75 in 10.0 mi NW 8.1 mph - N/A   Overcast
3:15 AM 32.0 °F 23.6 °F 22.6 °F 68% 29.76 in 10.0 mi NW 10.4 mph 17.3 mph N/A   Scattered Clouds
3:35 AM 31.1 °F 23.7 °F 22.3 °F 70% 29.75 in 10.0 mi WNW 8.1 mph - N/A   Clear
3:55 AM 29.8 °F 23.9 °F 21.9 °F 72% 29.76 in 10.0 mi West 5.8 mph - N/A   Clear
4:15 AM 29.8 °F 24.9 °F 22.1 °F 73% 29.77 in 10.0 mi West 4.6 mph - N/A   Clear
4:35 AM 28.4 °F - 21.7 °F 76% 29.77 in 10.0 mi Calm Calm - N/A   Clear
4:55 AM 28.0 °F 22.8 °F 21.7 °F 77% 29.77 in 10.0 mi SW 4.6 mph - N/A   Clear
5:15 AM 28.6 °F 20.7 °F 22.3 °F 77% 29.77 in 10.0 mi WSW 8.1 mph - N/A   Mostly Cloudy
5:35 AM 27.7 °F 22.4 °F 21.6 °F 78% 29.77 in 10.0 mi West 4.6 mph - N/A   Overcast
5:55 AM 26.8 °F 20.2 °F 21.2 °F 79% 29.78 in 10.0 mi West 5.8 mph - N/A   Overcast
6:15 AM 25.5 °F 19.9 °F 20.5 °F 81% 29.78 in 10.0 mi West 4.6 mph - N/A   Scattered Clouds
6:35 AM 26.1 °F 19.4 °F 21.6 °F 83% 29.79 in 10.0 mi WSW 5.8 mph - N/A   Clear
6:55 AM 25.9 °F 19.2 °F 20.5 °F 80% 29.81 in 10.0 mi West 5.8 mph - N/A   Clear
7:15 AM 25.5 °F 17.8 °F 20.8 °F 82% 29.81 in 10.0 mi West 6.9 mph - N/A   Mostly Cloudy
7:35 AM 26.8 °F 15.9 °F 21.9 °F 82% 29.82 in 10.0 mi West 12.7 mph - N/A   Overcast
7:55 AM 27.1 °F 17.5 °F 22.1 °F 81% 29.82 in 10.0 mi West 10.4 mph - N/A   Overcast
8:15 AM 28.0 °F 20.8 °F 22.6 °F 80% 29.83 in 10.0 mi West 6.9 mph - N/A   Overcast
8:35 AM 28.4 °F 24.6 °F 22.6 °F 79% 29.84 in 10.0 mi WSW 3.5 mph - N/A   Overcast
8:55 AM 29.3 °F - 22.8 °F 77% 29.84 in 10.0 mi Calm Calm - N/A   Overcast
9:15 AM 29.3 °F - 23.0 °F 77% 29.86 in 10.0 mi Calm Calm - N/A   Overcast
9:35 AM 30.4 °F 25.6 °F 23.0 °F 74% 29.88 in 10.0 mi West 4.6 mph - N/A   Overcast
9:55 AM 31.1 °F 26.4 °F 23.4 °F 73% 29.89 in 10.0 mi West 4.6 mph - N/A   Overcast
10:15 AM 31.8 °F 27.3 °F 23.2 °F 70% 29.89 in 10.0 mi West 4.6 mph - N/A   Overcast
10:35 AM 32.0 °F 27.5 °F 23.5 °F 71% 29.89 in 10.0 mi West 4.6 mph - N/A   Overcast
10:55 AM 32.2 °F 27.7 °F 23.4 °F 70% 29.89 in 10.0 mi WNW 4.6 mph - N/A   Overcast
11:15 AM 32.5 °F 26.2 °F 23.4 °F 69% 29.90 in 10.0 mi WNW 6.9 mph - N/A   Overcast
11:35 AM 32.4 °F 24.6 °F 23.5 °F 70% 29.90 in 10.0 mi WNW 9.2 mph - N/A   Overcast
11:55 AM 32.0 °F 25.6 °F 23.9 °F 72% 29.90 in 10.0 mi WNW 6.9 mph - N/A   Overcast
12:15 PM 32.0 °F 24.2 °F 23.9 °F 72% 29.90 in 7.0 mi WNW 9.2 mph - N/A Snow Light Snow
12:35 PM 30.4 °F 20.5 °F 22.8 °F 73% 29.90 in 7.0 mi NW 12.7 mph 17.3 mph N/A Snow Light Snow
12:55 PM 29.3 °F 19.6 °F 21.2 °F 72% 29.90 in 10.0 mi NW 11.5 mph - N/A   Overcast
1:15 PM 29.1 °F 20.0 °F 21.0 °F 72% 29.91 in 10.0 mi NNW 10.4 mph - N/A   Overcast
1:35 PM 28.4 °F 19.7 °F 20.8 °F 73% 29.91 in 10.0 mi NNW 9.2 mph - N/A   Overcast
1:55 PM 28.4 °F 21.2 °F 20.3 °F 72% 29.91 in 10.0 mi NNW 6.9 mph - N/A   Overcast
2:15 PM 28.0 °F 20.8 °F 21.0 °F 75% 29.92 in 3.0 mi NNW 6.9 mph - N/A Snow Light Snow
2:35 PM 27.5 °F 23.6 °F 21.4 °F 78% 29.92 in 5.0 mi NNW 3.5 mph - N/A Snow Light Snow
2:55 PM 27.5 °F 22.2 °F 21.2 °F 77% 29.93 in 3.0 mi NW 4.6 mph - N/A Snow Light Snow
3:15 PM 27.1 °F 19.7 °F 21.2 °F 78% 29.94 in 1.8 mi NW 6.9 mph - N/A Snow Light Snow
3:35 PM 26.6 °F 19.1 °F 20.3 °F 77% 29.96 in 2.0 mi NNW 6.9 mph - N/A Snow Light Snow
3:55 PM 25.5 °F 16.9 °F 20.8 °F 82% 29.97 in 1.2 mi NNW 8.1 mph - N/A Snow Light Snow
4:15 PM 25.2 °F 18.3 °F 21.7 °F 87% 29.98 in 1.2 mi NW 5.8 mph - N/A Snow Light Snow
4:35 PM 25.2 °F 20.9 °F 21.2 °F 85% 29.99 in 2.0 mi NNE 3.5 mph - N/A Snow Light Snow
4:55 PM 23.9 °F 12.3 °F 18.1 °F 79% 30.00 in 1.8 mi North 12.7 mph 18.4 mph N/A Snow Light Snow
5:15 PM 23.5 °F 13.0 °F 18.5 °F 81% 30.01 in 3.0 mi North 10.4 mph 16.1 mph N/A Snow Light Snow
5:35 PM 22.8 °F 12.9 °F 17.6 °F 80% 30.03 in 2.5 mi North 9.2 mph 16.1 mph N/A Snow Light Snow
5:55 PM 21.7 °F 10.8 °F 15.8 °F 78% 30.04 in 4.0 mi North 10.4 mph 18.4 mph N/A Snow Light Snow
6:15 PM 20.8 °F 9.7 °F 15.4 °F 80% 30.06 in 3.0 mi North 10.4 mph - N/A   Overcast
6:35 PM 18.5 °F 4.9 °F 11.8 °F 75% 30.08 in 3.0 mi North 13.8 mph 21.9 mph N/A Snow Light Snow
6:55 PM 17.6 °F 5.0 °F 11.1 °F 76% 30.09 in 4.0 mi North 11.5 mph 16.1 mph N/A Snow Light Snow
7:15 PM 16.5 °F 2.4 °F 8.4 °F 70% 30.11 in 4.0 mi North 13.8 mph 25.3 mph N/A Snow Light Snow
7:35 PM 15.6 °F 2.5 °F 5.9 °F 66% 30.13 in 7.0 mi North 11.5 mph 25.3 mph N/A Snow Light Snow
7:55 PM 14.9 °F 2.3 °F 6.8 °F 70% 30.14 in 5.0 mi North 10.4 mph 18.4 mph N/A Snow Light Snow
8:15 PM 14.5 °F 3.6 °F 8.6 °F 77% 30.16 in 4.0 mi North 8.1 mph 18.4 mph N/A Snow Light Snow
8:35 PM 13.8 °F 0.2 °F 4.6 °F 67% 30.17 in 10.0 mi North 11.5 mph 21.9 mph N/A   Overcast
8:55 PM 13.1 °F 0.1 °F 3.9 °F 67% 30.18 in 7.0 mi North 10.4 mph 16.1 mph N/A   Overcast
9:15 PM 12.6 °F -2.0 °F 3.0 °F 66% 30.20 in 5.0 mi North 12.7 mph 20.7 mph N/A   Haze
9:35 PM 12.2 °F -0.2 °F 3.2 °F 67% 30.20 in 7.0 mi North 9.2 mph - N/A   Overcast
9:55 PM 12.0 °F -1.3 °F 0.3 °F 59% 30.22 in 10.0 mi North 10.4 mph 18.4 mph N/A   Overcast
10:15 PM 12.0 °F -0.4 °F -0.6 °F 57% 30.22 in 10.0 mi North 9.2 mph - N/A   Overcast
10:35 PM 11.5 °F -5.2 °F -0.6 °F 58% 30.24 in 10.0 mi NNW 16.1 mph 20.7 mph N/A   Overcast
10:55 PM 10.4 °F -4.8 °F -2.2 °F 57% 30.26 in 10.0 mi North 12.7 mph 24.2 mph N/A   Overcast
11:15 PM 9.5 °F -5.9 °F -3.6 °F 55% 30.27 in 10.0 mi North 12.7 mph 20.7 mph N/A   Overcast
11:35 PM 9.0 °F -6.6 °F -5.3 °F 53% 30.28 in 10.0 mi North 12.7 mph 18.4 mph N/A   Mostly Cloudy
11:55 PM 8.1 °F -7.0 °F -6.9 °F 51% 30.29 in 10.0 mi North 11.5 mph 18.4 mph N/A   Scattered Clouds